Location: ?�kov
(49.4404°N, 15.1201°E)
Time: 18:18:38
(UTC+00:00)

Meteor 1-27 - Pass Details

Date: 07 June 2020
Orbit: 836 x 894 km, 81.3° (Epoch: 09 July)

Event Time Altitude Azimuth Distance (km) Brightness Sun altitude
Rises 00:06:09 0° 349° (N) 3,401 8.5 -16.2°
Reaches altitude 10° 00:08:36 10° 353° (N) 2,462 7.7 -16.1°
Maximum altitude 00:14:09 66° 75° (ENE) 917 4.5 -15.8°
Enters shadow 00:18:58 14° 157° (SSE) 2,194 5.9 -15.6°
